This demonstration page uses our WeatherBlox Daily Observations layout. Learn more.

Left ArrowRight Arrow

Hourly Observations for May 23, 2020

Temp ( °F °C ) Dew Point ( °F °C ) Humidity (%) Winds ( mph kmh ) Pressure ( in mb ) Visibility ( mi km ) Precip ( " mm )
12:20 am 00:20 Cloudy 65 18.3 60 15.6 84 84 NE 13 20 29.70 1006 10 16 0.15 3.81
12:44 am 00:44 Cloudy 64 17.8 60 15.6 87 87 NE 9 15 29.70 1006 10 16 0.15 3.81
12:52 am 00:52 Cloudy 64 17.8 60 15.6 87 87 ENE 12 19 29.71 1006 10 16 0.15 3.81
1:28 am 01:28 Cloudy 62 16.7 58 14.4 86 86 ESE 9 15 29.73 1007 10 16 0.00 0.00
1:52 am 01:52 Cloudy with Light Rain 62 16.7 58 14.4 86 86 ESE 8 13 29.72 1006 10 16 0.00 0.00
2:52 am 02:52 Cloudy 57 13.9 56 13.3 96 96 NW 7 11 29.71 1006 10 16 0.00 0.00
3:52 am 03:52 Mostly Cloudy 58 14.4 57 13.9 97 97 W 6 9 29.71 1006 10 16 0.00 0.00
3:59 am 03:59 Mostly Cloudy 59 15 58 14.4 96 96 NW 5 7 29.71 1006 10 16 0.00 0.00
4:52 am 04:52 Cloudy 60 15.6 58 14.4 93 93 NW 6 9 29.72 1007 10 16 0.00 0.00
5:07 am 05:07 Cloudy 60 15.6 59 15 96 96 NNW 5 7 29.73 1007 10 16 0.00 0.00
5:27 am 05:27 Cloudy 60 15.6 59 15 96 96 N 3 6 29.74 1007 10 16 0.00 0.00
5:52 am 05:52 Cloudy 60 15.6 58 14.4 93 93 Calm 29.74 1007 10 16 0.00 0.00
6:52 am 06:52 Partly Cloudy with Mist and Fog 60 15.6 59 15 96 96 NW 6 9 29.75 1008 6 10 0.00 0.00
7:36 am 07:36 Mostly Cloudy 62 16.7 59 15 90 90 NNW 8 13 29.77 1008 10 16 0.00 0.00
7:41 am 07:41 Cloudy 63 17.2 59 15 87 87 NW 7 11 29.77 1008 10 16 0.00 0.00
7:46 am 07:46 Cloudy 63 17 61 16 94 94 NW 7 11 29.77 1008 10 16 0.00 0.00
7:52 am 07:52 Cloudy 62 16.7 60 15.6 93 93 WNW 6 9 29.78 1008 10 16 0.00 0.00
8:52 am 08:52 Cloudy 64 17.8 59 15 84 84 WNW 7 11 29.80 1009 10 16 0.00 0.00
8:59 am 08:59 Cloudy 64 17.8 59 15 84 84 WNW 7 11 29.80 1009 10 16 0.00 0.00
9:52 am 09:52 Cloudy 65 18.3 59 15 81 81 W 7 11 29.82 1010 10 16 0.00 0.00
10:52 am 10:52 Mostly Cloudy 68 20 59 15 73 73 NW 5 7 29.83 1010 10 16 0.00 0.00
11:52 am 11:52 Mostly Cloudy 72 22.2 60 15.6 66 66 W 8 13 29.82 1010 10 16 0.00 0.00
12:52 pm 12:52 Mostly Cloudy 74 23.3 59 15 60 60 W 8 13 29.82 1010 10 16 0.00 0.00
1:52 pm 13:52 Mostly Cloudy 76 24.4 60 15.6 58 58 VRB 6 9 29.80 1009 10 16 0.00 0.00
2:52 pm 14:52 Mostly Cloudy 77 25 60 15.6 56 56 WNW 5 7 29.79 1009 10 16 0.00 0.00
3:52 pm 15:52 Mostly Cloudy 80 26.7 62 16.7 54 54 ENE 8 13 29.78 1008 10 16 0.00 0.00
4:52 pm 16:52 Mostly Cloudy 80 26.7 60 15.6 51 51 NE 6 9 29.75 1008 10 16 0.00 0.00
5:52 pm 17:52 Mostly Cloudy 80 26.7 60 15.6 51 51 ENE 6 9 29.75 1007 10 16 0.00 0.00
6:52 pm 18:52 Mostly Cloudy 81 27.2 59 15 47 47 ESE 8 13 29.75 1007 10 16 0.00 0.00
7:52 pm 19:52 Mostly Cloudy 78 25.6 59 15 52 52 S 13 20 29.76 1008 10 16 0.00 0.00
8:52 pm 20:52 Mostly Cloudy 74 23.3 60 15.6 62 62 SSE 8 13 29.76 1008 10 16 0.00 0.00
9:52 pm 21:52 Mostly Cloudy 72 22.2 60 15.6 66 66 ESE 9 15 29.77 1008 10 16 0.00 0.00
10:52 pm 22:52 Mostly Cloudy 72 22.2 60 15.6 66 66 SE 8 13 29.77 1008 10 16 0.00 0.00
11:52 pm 23:52 Cloudy 73 22.8 61 16.1 66 66 SSE 13 20 29.75 1008 10 16 0.00 0.00

Powered by AerisWeather